Weather History for Pascagoula, MS

Change the Weather History Date:

Wednesday, April 2, 2014

  Actual Average Record
Temperature  
Mean Temperature 69 °F -  
Max Temperature 78 °F 73 °F 82 °F (1999)
Min Temperature 60 °F 55 °F 34 °F (1987)
Cooling Degree Days 4    
Growing Degree Days 19 (Base 50)    
Moisture  
Dew Point 64 °F    
Average Humidity 87    
Maximum Humidity 100    
Minimum Humidity 62    
Precipitation  
Precipitation 0.00 in - - ()
Sea Level Pressure  
Sea Level Pressure 30.09 in    
Wind  
Wind Speed 7 mph (SSE)    
Max Wind Speed 15 mph    
Max Gust Speed 24 mph    
Visibility 9 miles    
Events      
Averages and records for this station are not official NWS values.
T = Trace of Precipitation, MM = Missing Value Source: NWS Daily Summary

Daily Weather History Graph

Daily Weather History Graph

Search for Another Location

Airport:

Trip Planner

Search our weather history database for the weather conditions in past years. The results will help you decide how hot, cold, wet, or windy it might be!

Date:

Astronomy

Apr. 02, 2014 Rise Set
Actual Time 6:42 AM CDT 7:13 PM CDT
Civil Twilight 6:17 AM CDT 7:37 PM CDT
Nautical Twilight 5:49 AM CDT 8:06 PM CDT
Astronomical Twilight 5:20 AM CDT 8:35 PM CDT
Moon 8:37 AM CDT (4/2) 10:23 PM CDT (4/2)
Length of Visible Light 13h 20m
Length of Day
12h 31m
Waxing Crescent, 10% of the Moon is Illuminated
Apr 2
Waxing Crescent
Apr 7
First Quarter
Apr 15
Full
Apr 22
Last Quarter
Apr 29
New

Hourly Weather History & Observations

Time (CDT) Temp. Dew Point Humidity Pressure Visibility Wind Dir Wind Speed Gust Speed Precip Events Conditions
12:53 AM 60.1 °F 59.0 °F 96% 30.09 in 9.0 mi Calm Calm - N/A   Clear
1:53 AM 61.0 °F 60.1 °F 97% 30.09 in 8.0 mi SSE 3.5 mph - N/A   Clear
2:02 AM 61.0 °F 60.1 °F 97% 30.08 in 8.0 mi Calm Calm - N/A   Scattered Clouds
2:13 AM 61.0 °F 60.1 °F 97% 30.08 in 8.0 mi Calm Calm - N/A   Mostly Cloudy
2:53 AM 62.1 °F 61.0 °F 96% 30.08 in 7.0 mi SE 5.8 mph - N/A   Overcast
3:53 AM 64.0 °F 63.0 °F 96% 30.07 in 9.0 mi SSE 6.9 mph - N/A   Scattered Clouds
4:53 AM 64.0 °F 63.0 °F 96% 30.06 in 8.0 mi SSE 8.1 mph - N/A   Partly Cloudy
5:53 AM 64.0 °F 64.0 °F 100% 30.08 in 7.0 mi SE 5.8 mph - N/A   Mostly Cloudy
6:02 AM 64.0 °F 64.0 °F 100% 30.07 in 7.0 mi SE 4.6 mph - N/A   Overcast
7:53 AM 66.0 °F 64.9 °F 96% 30.10 in 7.0 mi SE 8.1 mph - N/A   Mostly Cloudy
8:17 AM 66.9 °F 66.0 °F 97% 30.10 in 8.0 mi SE 9.2 mph - N/A   Overcast
8:53 AM 69.1 °F 66.9 °F 93% 30.12 in 10.0 mi SSE 10.4 mph - N/A   Overcast
9:53 AM 72.0 °F 66.0 °F 81% 30.13 in 10.0 mi SSE 15.0 mph 20.7 mph N/A   Mostly Cloudy
10:53 AM 75.0 °F 64.9 °F 71% 30.14 in 10.0 mi SSE 13.8 mph 20.7 mph N/A   Mostly Cloudy
11:53 AM 78.1 °F 64.9 °F 64% 30.13 in 10.0 mi South 15.0 mph 21.9 mph N/A   Overcast
12:53 PM 78.1 °F 64.0 °F 62% 30.12 in 10.0 mi South 11.5 mph 24.2 mph N/A   Mostly Cloudy
1:53 PM 75.9 °F 64.9 °F 69% 30.11 in 10.0 mi SSE 15.0 mph 20.7 mph N/A   Overcast
2:53 PM 75.9 °F 64.9 °F 69% 30.10 in 10.0 mi SSE 15.0 mph - N/A   Overcast
3:53 PM 75.0 °F 64.0 °F 69% 30.09 in 10.0 mi South 15.0 mph - N/A   Overcast
4:53 PM 73.0 °F 64.9 °F 76% 30.08 in 10.0 mi SE 11.5 mph - N/A   Mostly Cloudy
5:53 PM 71.1 °F 64.9 °F 81% 30.09 in 10.0 mi SE 10.4 mph - N/A   Scattered Clouds
6:53 PM 70.0 °F 64.0 °F 81% 30.08 in 10.0 mi SE 8.1 mph - N/A   Partly Cloudy
7:53 PM 68.0 °F 64.0 °F 87% 30.08 in 10.0 mi SE 11.5 mph - N/A   Clear
8:53 PM 66.9 °F 64.9 °F 93% 30.08 in 10.0 mi SE 10.4 mph - N/A   Clear
9:51 PM 66.2 °F 64.4 °F 94% 30.08 in 10.0 mi SE 8.1 mph - N/A   Partly Cloudy
9:53 PM 66.9 °F 64.9 °F 93% 30.08 in 10.0 mi SE 8.1 mph - N/A   Scattered Clouds
10:09 PM 66.9 °F 64.9 °F 93% 30.08 in 10.0 mi SE 10.4 mph - N/A   Mostly Cloudy
10:32 PM 66.9 °F 64.9 °F 93% 30.08 in 10.0 mi SSE 12.7 mph - N/A   Scattered Clouds
11:53 PM 66.9 °F 64.9 °F 93% 30.07 in 10.0 mi SSE 15.0 mph - N/A   Clear